Regional Weather Roundup
Issued by NWS

Home | Current Version | Previous Version | Graphics & Text | Print | Product List | Glossary On
Versions: 1 2 3 4 5 6 7 8 9 10 11 12 13 14 15 16 17 18 19 20 21 22 23 24 25 26 27 28 29 30 31 32 33 34 35 36 37 38 39 40 41 42 43 44 45 46
000
ASUS45 KSLC 270210
RWRUT

UTAH REGIONAL WEATHER ROUNDUP
NATIONAL WEATHER SERVICE SALT LAKE CITY UT
700 PM MST FRI DEC 26 2014

UTZ001>011-023>025-270300-

NORTHERN UTAH

CITY           SKY/WX    TMP DP  RH WIND       PRES   REMARKS
BRIGHAM CITY   CLEAR     18  11  74 CALM      30.17R
HILL AFB       PTCLDY    19  11  69 CALM      30.14R
LOGAN          CLEAR     10   6  84 E6        30.16R WCI   0
OGDEN          CLEAR     23  14  68 CALM      30.14R
PROVO AIRPORT  MOCLDY    25  16  68 W10       30.15R WCI  15
SALT LAKE CITY MOCLDY    23  15  71 E3        30.15R
VERNAL         CLOUDY    24  10  55 NE10      30.04R WCI  14
WENDOVER       CLOUDY    30  12  47 N13       30.20R WCI  20
HEBER CITY     MOCLDY    14  14 100 S3        30.07R
WEST JORDAN    CLOUDY    25  19  80 W5        30.15R WCI  19

$$

UTZ012>022-026-027-270300-

SOUTHERN/CENTRAL UTAH

CITY           SKY/WX    TMP DP  RH WIND       PRES   REMARKS
BLANDING       CLOUDY    25  15  67 NW9       30.03R WCI  15
BRYCE CANYON   CLEAR     10   6  84 NW13      30.00R WCI  -5
CEDAR CITY     PTCLDY    11   7  84 N3        30.10R
DELTA          CLOUDY    20  15  79 CALM      30.16R
MILFORD        CLOUDY    22  16  78 N6        30.13R WCI  14
MOAB/CYNLANDS  CLOUDY    18  14  84 W3        30.02R
PRICE          PTCLDY    22   6  50 NW12G18   30.01R WCI  10
ST GEORGE      PTCLDY    37  10  32 NE18G31   30.15R WCI  27
KANAB          CLEAR     28   9  43 NW18G25   30.10R WCI  16

$$

REGIONAL REPORTS     COLORADO/ARIZONA

CITY           SKY/WX    TMP DP  RH WIND       PRES   REMARKS
CRAIG, CO      LGT SNOW  14  10  84 SW12      29.99R FOG     WCI   0
GRAND JUNCTION CLOUDY    23  18  81 CALM      30.03R
RIFLE          CLOUDY    21   9  59 NW14      30.01R WCI   8
MONTROSE       CLOUDY    23  17  78 NW9       30.00R WCI  13
CORTEZ         CLOUDY    24  16  71 NW9       29.98R WCI  14
PAGE, AZ       MOCLDY    35   8  32 W8G16     30.02R WCI  29
GRAND CANYON   CLEAR     18  12  77 CALM      30.01R
KINGMAN        CLEAR     33  12  41 N8        30.10R WCI  26
FLAGSTAFF      PTCLDY    21   9  59 VRB3      29.98R

$$

REGIONAL REPORTS    NEVADA/IDAHO/WYOMING

CITY           SKY/WX    TMP DP  RH WIND       PRES   REMARKS
LAS VEGAS, NV  MOCLDY    47   9  21 N10       30.12R
ELY            CLOUDY    19  12  74 NW6       30.13R WCI  11
ELKO           CLOUDY    27  15  61 VRB3      30.19R
POCATELLO, ID  CLOUDY    20  18  92 SW12      30.18R WCI   8
BURLEY         CLOUDY    21  16  81 SW5       30.18R WCI  15
EVANSTON, WY   CLOUDY    12   9  87 SW5       30.00R FOG     WCI   4
ROCK SPRINGS   CLOUDY    12   9  87 E3        30.00R

$$



USA.gov is the U.S. government's official web portal to all federal, state and local government web resources and services.